EN

Hourly Weather Abakaliki

Today, 12 June, Saturday

Time Temperature Precipitation Wind Pressure Humidity
00:00 +26°C° 0 mm 2 mps 752 mmHg 88%
01:00 +26°C° 0 mm 2 mps 752 mmHg 88%
02:00 +26°C° 0.3 mm 2 mps 752 mmHg 90%
03:00 +25°C° 0.3 mm 2 mps 752 mmHg 92%
04:00 +24°C° 0.3 mm 2 mps 751 mmHg 94%
05:00 +24°C° 0.3 mm 2 mps 752 mmHg 94%
06:00 +24°C° 0.3 mm 2 mps 752 mmHg 94%
07:00 +24°C° 0 mm 2 mps 753 mmHg 95%
08:00 +26°C° 0.1 mm 2 mps 753 mmHg 90%
09:00 +27°C° 0.1 mm 2 mps 754 mmHg 84%
10:00 +28°C° 0.1 mm 2 mps 754 mmHg 79%
11:00 +29°C° 0 mm 2 mps 754 mmHg 74%
12:00 +30°C° 0 mm 2 mps 753 mmHg 69%
13:00 +31°C° 0 mm 2 mps 753 mmHg 64%
14:00 +33°C° 0 mm 3 mps 752 mmHg 63%
15:00 +33°C° 0 mm 3 mps 752 mmHg 61%
16:00 +34°C° 0 mm 3 mps 751 mmHg 60%
17:00 +31°C° 0 mm 3 mps 751 mmHg 67%
18:00 +30°C° 0 mm 4 mps 752 mmHg 74%
19:00 +28°C° 0 mm 4 mps 752 mmHg 81%
20:00 +27°C° 0 mm 4 mps 752 mmHg 84%
21:00 +27°C° 0 mm 4 mps 753 mmHg 87%
22:00 +26°C° 0 mm 3 mps 753 mmHg 89%
23:00 +26°C° 0 mm 3 mps 753 mmHg 91%

Tomorrow, 13 June, Sunday

Time Temperature Precipitation Wind Pressure Humidity
00:00 +26°C° 0 mm 2 mps 753 mmHg 92%
01:00 +26°C° 0 mm 1 mps 753 mmHg 93%
02:00 +26°C° 0 mm 1 mps 753 mmHg 92%
03:00 +26°C° 0 mm 1 mps 753 mmHg 92%
04:00 +26°C° 0 mm 1 mps 752 mmHg 91%
05:00 +26°C° 0 mm 1 mps 753 mmHg 91%
06:00 +26°C° 0 mm 1 mps 754 mmHg 91%
07:00 +26°C° 0 mm 2 mps 754 mmHg 91%
08:00 +26°C° 0 mm 1 mps 754 mmHg 88%
09:00 +27°C° 0 mm 1 mps 754 mmHg 84%
10:00 +26°C° 0 mm 0 mps 755 mmHg 81%
11:00 +26°C° 0 mm 0 mps 754 mmHg 79%
12:00 +29°C° 0 mm 1 mps 753 mmHg 77%
13:00 +29°C° 0 mm 1 mps 752 mmHg 75%
14:00 +30°C° 0 mm 1 mps 752 mmHg 72%
15:00 +31°C° 0 mm 1 mps 751 mmHg 69%
16:00 +32°C° 0 mm 1 mps 751 mmHg 67%
17:00 +30°C° 0 mm 1 mps 751 mmHg 71%
18:00 +29°C° 0 mm 2 mps 752 mmHg 75%
19:00 +28°C° 0 mm 2 mps 752 mmHg 79%
20:00 +28°C° 0 mm 2 mps 752 mmHg 78%
21:00 +28°C° 0 mm 2 mps 752 mmHg 78%
22:00 +28°C° 0 mm 2 mps 752 mmHg 77%
23:00 +27°C° 0 mm 1 mps 752 mmHg 80%

Day after tomorrow, 14 June, Monday

Time Temperature Precipitation Wind Pressure Humidity
00:00 +27°C° 0 mm 1 mps 752 mmHg 82%
01:00 +26°C° 0 mm 1 mps 752 mmHg 85%
02:00 +26°C° 0 mm 1 mps 752 mmHg 86%
03:00 +26°C° 0 mm 2 mps 752 mmHg 87%
04:00 +26°C° 0 mm 2 mps 752 mmHg 88%
05:00 +26°C° 0 mm 2 mps 752 mmHg 88%
06:00 +26°C° 0 mm 2 mps 753 mmHg 88%
07:00 +26°C° 0 mm 2 mps 753 mmHg 89%
08:00 +28°C° 0 mm 3 mps 753 mmHg 83%
09:00 +29°C° 0 mm 3 mps 753 mmHg 78%
10:00 +30°C° 0 mm 3 mps 754 mmHg 73%
11:00 +31°C° 0 mm 3 mps 753 mmHg 70%
12:00 +33°C° 0 mm 3 mps 753 mmHg 66%
13:00 +34°C° 0 mm 3 mps 752 mmHg 63%
14:00 +33°C° 0 mm 3 mps 752 mmHg 65%
15:00 +33°C° 0 mm 3 mps 751 mmHg 66%
16:00 +33°C° 0 mm 3 mps 751 mmHg 68%
17:00 +31°C° 0 mm 3 mps 751 mmHg 71%
18:00 +30°C° 0 mm 3 mps 751 mmHg 75%
19:00 +29°C° 0 mm 2 mps 752 mmHg 78%
20:00 +28°C° 0.5 mm 3 mps 752 mmHg 82%
21:00 +28°C° 0.5 mm 3 mps 752 mmHg 85%
22:00 +27°C° 0.5 mm 4 mps 753 mmHg 89%
23:00 +27°C° 3.1 mm 4 mps 753 mmHg 91%

15 June, Tuesday

Time Temperature Precipitation Wind Pressure Humidity
00:00 +26°C° 3.1 mm 4 mps 753 mmHg 93%
01:00 +26°C° 3.1 mm 4 mps 753 mmHg 96%
02:00 +26°C° 0.3 mm 3 mps 752 mmHg 95%
03:00 +25°C° 0.3 mm 2 mps 752 mmHg 95%
04:00 +25°C° 0.3 mm 1 mps 752 mmHg 94%
05:00 +23°C° 0 mm 0 mps 752 mmHg 93%
06:00 +23°C° 0 mm 0 mps 753 mmHg 93%
07:00 +24°C° 0 mm 0 mps 753 mmHg 92%
08:00 +27°C° 0 mm 1 mps 753 mmHg 86%
09:00 +28°C° 0 mm 1 mps 754 mmHg 80%
10:00 +29°C° 0 mm 2 mps 754 mmHg 75%
11:00 +30°C° 0 mm 2 mps 753 mmHg 70%
12:00 +31°C° 0 mm 2 mps 753 mmHg 66%
13:00 +32°C° 0 mm 2 mps 752 mmHg 62%
14:00 +32°C° 0 mm 2 mps 752 mmHg 62%
15:00 +34°C° 0 mm 2 mps 751 mmHg 61%
16:00 +34°C° 0 mm 2 mps 751 mmHg 61%
17:00 +32°C° 0 mm 2 mps 751 mmHg 66%
18:00 +31°C° 0 mm 2 mps 751 mmHg 71%
19:00 +29°C° 0 mm 2 mps 751 mmHg 75%
20:00 +29°C° 0 mm 2 mps 752 mmHg 78%
21:00 +28°C° 0 mm 2 mps 752 mmHg 81%
22:00 +28°C° 0 mm 2 mps 752 mmHg 83%
23:00 +27°C° 0 mm 2 mps 752 mmHg 85%

16 June, Wednesday

Time Temperature Precipitation Wind Pressure Humidity
00:00 +27°C° 0 mm 2 mps 752 mmHg 86%
01:00 +27°C° 0 mm 2 mps 752 mmHg 88%
02:00 +26°C° 0 mm 2 mps 752 mmHg 89%
03:00 +26°C° 0 mm 2 mps 752 mmHg 90%
04:00 +26°C° 0 mm 2 mps 752 mmHg 91%
05:00 +26°C° 0 mm 2 mps 753 mmHg 91%
06:00 +26°C° 0 mm 2 mps 753 mmHg 91%
07:00 +26°C° 0 mm 1 mps 753 mmHg 92%
08:00 +27°C° 0.1 mm 1 mps 754 mmHg 85%
09:00 +29°C° 0.1 mm 2 mps 754 mmHg 79%
10:00 +30°C° 0.1 mm 2 mps 754 mmHg 73%
11:00 +31°C° 0.5 mm 2 mps 754 mmHg 69%
12:00 +32°C° 0.5 mm 2 mps 753 mmHg 66%
13:00 +32°C° 0.5 mm 2 mps 753 mmHg 63%
14:00 +32°C° 0.4 mm 2 mps 752 mmHg 64%
15:00 +32°C° 0.4 mm 1 mps 752 mmHg 64%
16:00 +32°C° 0.4 mm 1 mps 751 mmHg 64%
17:00 +31°C° 0.8 mm 1 mps 751 mmHg 70%
18:00 +30°C° 0.8 mm 2 mps 752 mmHg 76%
19:00 +28°C° 0.8 mm 2 mps 752 mmHg 82%
20:00 +28°C° 0.3 mm 3 mps 752 mmHg 85%
21:00 +27°C° 0.3 mm 3 mps 753 mmHg 87%
22:00 +27°C° 0.3 mm 4 mps 753 mmHg 90%
23:00 +26°C° 0.4 mm 3 mps 753 mmHg 92%

17 June, Thursday

Time Temperature Precipitation Wind Pressure Humidity
00:00 +26°C° 0.4 mm 3 mps 754 mmHg 93%
01:00 +25°C° 0.4 mm 3 mps 754 mmHg 95%
02:00 +25°C° 0.2 mm 2 mps 753 mmHg 95%
03:00 +25°C° 0.2 mm 2 mps 753 mmHg 95%
04:00 +25°C° 0.2 mm 2 mps 753 mmHg 96%
05:00 +25°C° 0 mm 1 mps 754 mmHg 95%
06:00 +25°C° 0 mm 1 mps 754 mmHg 95%
07:00 +26°C° 0 mm 1 mps 754 mmHg 94%
08:00 +27°C° 0.1 mm 2 mps 755 mmHg 89%
09:00 +28°C° 0.1 mm 2 mps 755 mmHg 84%
10:00 +29°C° 0.1 mm 3 mps 755 mmHg 79%
11:00 +30°C° 0 mm 3 mps 755 mmHg 74%
12:00 +31°C° 0 mm 3 mps 754 mmHg 68%
13:00 +33°C° 0 mm 3 mps 753 mmHg 63%
14:00 +32°C° 0.2 mm 2 mps 753 mmHg 67%
15:00 +31°C° 0.2 mm 2 mps 752 mmHg 70%
16:00 +31°C° 0.2 mm 2 mps 752 mmHg 74%
17:00 +29°C° 0.8 mm 2 mps 752 mmHg 78%
18:00 +28°C° 0.8 mm 3 mps 752 mmHg 83%
19:00 +27°C° 0.8 mm 4 mps 753 mmHg 88%
20:00 +27°C° 0.2 mm 4 mps 753 mmHg 89%
21:00 +26°C° 0.2 mm 4 mps 754 mmHg 91%
22:00 +26°C° 0.2 mm 3 mps 755 mmHg 92%
23:00 +26°C° 0.1 mm 3 mps 754 mmHg 93%
Show more